Location: Cahas Mountain Overlook
(37.0833°N, 80.1000°W)
Time: 10:36:51
(UTC-05:00)

Tiangong - Visible Passes

Search period start: 03 December 2022 00:00
Search period end: 13 December 2022 00:00
Orbit: 386 x 394 km, 41.5° (Epoch: 02 December)

Date Brightness Start Highest point End Pass type
(mag) Time Alt. Az. Time Alt. Az. Time Alt. Az.
03 Dec -1.3 18:32:37 10° WNW 18:35:37 37° N 18:35:49 36° N visible
04 Dec -1.5 17:34:25 10° W 17:37:29 44° N 17:40:33 10° ENE visible
04 Dec 0.4 19:11:47 10° WNW 19:12:52 18° NW 19:12:52 18° NW visible
05 Dec -1.2 18:13:38 10° WNW 18:16:35 35° N 18:17:35 27° NE visible
06 Dec -0.7 18:52:33 10° WNW 18:54:36 32° NW 18:54:36 32° NW visible
07 Dec -1.4 17:54:23 10° WNW 17:57:23 38° N 17:59:21 18° ENE visible
07 Dec 1.2 19:31:18 10° WNW 19:31:40 13° WNW 19:31:40 13° WNW visible
08 Dec -2.3 18:33:06 10° WNW 18:36:16 70° NNE 18:36:28 66° NE visible
09 Dec -1.8 17:34:51 10° WNW 17:37:58 49° NNE 17:41:04 10° E visible
09 Dec 0.0 19:11:52 10° W 19:13:42 27° WSW 19:13:42 27° WSW visible
10 Dec -1.9 18:13:28 10° WNW 18:16:38 68° SSW 18:18:45 19° SE visible
11 Dec 0.3 18:52:33 10° W 18:55:00 20° SW 18:56:20 16° S visible
12 Dec -0.5 17:53:48 10° W 17:56:45 35° SSW 17:59:40 10° SE visible
